Regional Weather Roundup
Issued by NWS

Home | Current Version | Previous Version | Text Only | Print | Product List | Glossary On
Versions: 1 2 3 4 5 6 7 8 9 10 11 12 13 14 15 16 17 18 19 20 21 22 23 24 25 26 27 28 29 30 31 32 33 34 35 36 37 38 39 40 41 42 43 44 45 46 47 48 49 50
000
ASUS43 KMPX 260901
RWRMN
WEATHER ROUNDUP FOR MINNESOTA
NATIONAL WEATHER SERVICE TWIN CITIES/CHANHASSEN MN
400 AM CDT FRI AUG 26 2016


NOTE: "FAIR" INDICATES FEW OR NO CLOUDS BELOW 12,000 FEET WITH NO
SIGNIFICANT WEATHER AND/OR OBSTRUCTIONS TO VISIBILITY. N/A MEANS
CURRENT SKY AND/OR WEATHER CONDITIONS ARE NOT AVAILABLE.

MNZ060>063-068>070-261000-
   Twin Cities Metro

CITY           SKY/WX    TMP DP  RH WIND       PRES   REMARKS
TWIN CITIES    FAIR      59  54  83 SW3       30.14S
ST PAUL        FAIR      57  54  89 CALM      30.14
CRYSTAL        FAIR      56  52  86 CALM      30.13S
BLAINE         FAIR      55  55 100 CALM      30.14S
LAKEVILLE      FAIR      54  54 100 CALM      30.15S
EDEN PRAIRIE   FAIR      56  53  90 SW3       30.14R
LAKEVILLE      FAIR      54  54 100 CALM      30.15S
SOUTH ST PAUL  FAIR      57  55  92 CALM      30.14S
LAKE ELMO      FAIR      55  54  94 CALM      30.15S
$$
MNZ001>005-007-008-013>017-022>024-027-028-261000-
   Northwest Minnesota

CITY           SKY/WX    TMP DP  RH WIND       PRES   REMARKS
BEMIDJI        FAIR      46  46  97 CALM      30.10F
HALLOCK        FAIR      50  48  93 SE5       30.05S
ROSEAU         FAIR      48  43  81 CALM      30.07S
WARROAD        FAIR      48  45  87 SW5       30.07F
THIEF RVR FALL FAIR      49  47  93 S6        30.08F
CROOKSTON      FAIR      46  46 100 S6        30.08S
FOSSTON        FAIR      46  46 100 S6        30.10S
DETROIT LAKES  FAIR      55  52  88 CALM      30.13S
MOORHEAD       FAIR      52  48  87 S3        30.12S
PARK RAPIDS    MOCLDY    54  50  86 S3        30.12S
MAHNOMEN       FAIR      49  48  95 S8        30.10S
$$
MNZ006-009>011-018-025>026-261000-
   North Central Minnesota

CITY           SKY/WX    TMP DP  RH WIND       PRES   REMARKS
BAUDETTE       FAIR      48  46  93 CALM      30.07S
FLAG ISLAND    FAIR      57  52  82 CALM      30.05S
INTL FALLS     FAIR      43  42  97 CALM      30.08S FOG
WASKISH        FAIR      50  48  93 CALM      30.08F
BIG FORK       FAIR      48  46  93 CALM      30.10F
LONGVILLE      FAIR      48  48 100 CALM      30.12R FOG
GRAND RAPIDS   FAIR      49  48  97 CALM      30.13F FOG
CRANE LAKE     FAIR      43  43 100 CALM      30.11S
ORR            FAIR      52  48  87 CALM      30.07F
COOK           FAIR      52  52 100 CALM      30.10S
WALKER         PTSUNNY   48  47  97 CALM      30.11S
$$
MNZ012-019>021-037-261000-
   Northeast Minnesota

CITY           SKY/WX    TMP DP  RH WIND       PRES   REMARKS
DULUTH         CLOUDY    58  54  86 NW7       30.09S
ELY            CLOUDY    52  50  93 CALM      30.09R
HIBBING        CLOUDY    55  53  93 CALM      30.09F
EVELETH        CLOUDY    58  54  87 W5        30.10S
DULUTH HARBOR  CLOUDY    63  55  77 W7        30.09F
TWO HARBORS    MOCLDY    61  55  82 NW3       30.06S
SILVER BAY     FAIR      55  54  94 W3        30.07R
G MARAIS ARPRT FAIR      52  48  87 CALM      30.06R
$$
MNZ029>031-032-039>041-046>048-054>057-064-261000-
   West Central Minnesota

CITY           SKY/WX    TMP DP  RH WIND       PRES   REMARKS
FERGUS FALLS   FAIR      54  54 100 CALM      30.15F
WHEATON        FAIR      57  54  88 SW5       30.15F
MORRIS         FAIR      50  48  93 CALM      30.14S
ALEXANDRIA     FAIR      54  52  93 W5        30.16S
ELBOW LAKE     FAIR      52  52  97 CALM      30.14S
GLENWOOD       FAIR      54  52  94 W5        30.16R
APPLETON       FAIR      52  50  93 CALM      30.15S
BENSON         FOG       48  46  93 CALM      30.16S VSB 1/2
ORTONVILLE     FAIR      52  48  87 CALM      30.15S
MADISON        FAIR      50  48  93 W3        30.16S
WILLMAR        FAIR      52  52 100 SW3       30.17S
$$
MNZ033>034-036-042>043-049>051-058-059-261000-
   Central Minnesota

CITY           SKY/WX    TMP DP  RH WIND       PRES   REMARKS
ST CLOUD       FAIR      51  51 100 CALM      30.14R FOG
SAUK CENTRE    FAIR      51  50  97 CALM      30.16R
PAYNESVILLE    FAIR      51  51 100 W3        30.16S
AITKIN         FAIR      52  48  87 CALM      30.10F
PINE RIVER     CLOUDY    48  48 100 CALM      30.15S
BRAINERD       FAIR      51  50  96 CALM      30.13S
STAPLES        CLOUDY    54  52  94 CALM      30.13S
LONG PRAIRIE   LGT SNOW  50  50 100 CALM      30.15R VSB 3/4
LITTLE FALLS   FOG       46  46 100 CALM      30.15R VSB 1/2
LITCHFIELD     FAIR      57  55  94 W3        30.16S
BUFFALO        FAIR      56  54  91 CALM      30.16R
MAPLE LAKE     FAIR      57  56  94 CALM      30.16R
HUTCHINSON     FAIR      51  51  99 CALM      30.17R
$$
MNZ037-044-045-052-053-261000-
   East Central Minnesota

CITY           SKY/WX    TMP DP  RH WIND       PRES   REMARKS
PRINCETON      FOG       52  50  93 CALM      30.14S VSB 3/4
MORA           FAIR      52  52 100 CALM      30.15R
CAMBRIDGE      FAIR      55  48  76 CALM      30.12S
RUSH CITY      MOCLDY    54  52  94 CALM      30.13S
MOOSE LAKE     FAIR      50  46  87 CALM      30.10F
HINCKLEY       FAIR      52  52 100 CALM      30.12S
CLOQUET        FAIR      54  50  87 W6        30.11S
MCGREGOR       FAIR      52  50  93 SW3       30.12S
$$
MNZ071>073-080-081-089-090-097-098-261000-
   Southwest Minnesota

CITY           SKY/WX    TMP DP  RH WIND       PRES   REMARKS
MONTEVIDEO     FAIR      54  52  94 W5        30.17F
GRANITE FALLS  FAIR      51  50  97 W5        30.18S
CANBY          FAIR      53  51  92 SW3       30.18S
MARSHALL       FAIR      51  50  96 CALM      30.17S
REDWOOD FALLS  FAIR      53  50  89 W5        30.17R
OLIVIA         FAIR      52  50  93 CALM      30.16S
PIPESTONE      FAIR      54  52  94 NW1       30.18R
WINDOM         FAIR      52  50  93 CALM      30.17S
WORTHINGTON    FAIR      52  50  93 W3        30.18S
JACKSON        FAIR      52  50  93 CALM      30.17F FOG
TRACY          FAIR      55  53  91 W5        30.18R
SLAYTON        FAIR      50  48  93 CALM      30.19R
$$
MNZ065>067-074>077-082>085-091>093-261000-
   South Central Minnesota

CITY           SKY/WX    TMP DP  RH WIND       PRES   REMARKS
MANKATO        FAIR      55  52  88 CALM      30.16S
NEW ULM          N/A     52  52 100 CALM      30.17R
FAIRMONT       FAIR      55  54  96 CALM      30.17S
GLENCOE        FAIR      55  55  97 W3        30.15S
FARIBAULT      FAIR      54  52  94 CALM      30.16S
OWATONNA       FAIR      54  52  94 CALM      30.16S
WASECA         FOG       52  50  93 CALM      30.18R VSB 1/4
ALBERT LEA     FAIR      55  54  94 CALM      30.16S
$$
MNZ078>079-086>088-094>096-261000-
   Southeast Minnesota

CITY           SKY/WX    TMP DP  RH WIND       PRES   REMARKS
ROCHESTER      FAIR      56  53  90 W3        30.16S
RED WING       FAIR      54  52  94 CALM      30.13S
DODGE CENTER   FAIR      54  52  94 W5        30.16S
WINONA         FAIR      59  55  88 CALM      30.14S
AUSTIN         FAIR      55  54  94 CALM      30.15F
PRESTON        FAIR      56  52  86 NW5       30.16S
$$
ABBREVIATIONS USED IN REMARKS
   TC - TEMPERATURES IN CELSIUS
  WCI - WIND CHILL INDEX
   HX - HEAT INDEX
  VSB - VISIBILITY
$$




USA.gov is the U.S. government's official web portal to all federal, state and local government web resources and services.